Location: Dattensoll
(49.9928°N, 9.8954°E)
Time: 17:35:52
(UTC+00:00)

Daily predictions for brighter satellites

Satellite Brightness Start Highest point End
(mag) Time Altitude Azimuth Time Altitude Azimuth Time Altitude Azimuth
Meteor 1-25 Rocket 4.2 19:42:03 10° NNW 19:47:39 87° E 19:53:12 10° SSE
Cosmos 2074 Rocket 4.1 19:41:54 10° N 19:48:09 82° W 19:54:21 10° S
Lacrosse 5 rocket 1.1 19:45:12 10° NW 19:48:48 72° NNE 19:52:15 10° ESE
SPOT 5 3.2 19:47:56 10° S 19:52:12 56° W 19:56:27 10° NNW
Cosmos 1814 Rocket 3.9 19:47:29 10° SSW 19:52:34 71° ESE 19:57:44 10° NNE
Cosmos 1867 4.0 19:49:47 10° NW 19:55:10 55° NE 20:00:30 10° ESE
Alouette 2 Rocket 3.9 19:52:27 10° NNW 19:56:02 60° WSW 20:00:23 10° S
Cosmos-2242 3.6 19:52:26 10° SSE 19:56:22 37° E 20:00:18 10° NNE
Nadezhda 1 Rocket 4.0 19:50:33 10° S 19:56:32 65° E 20:02:39 10° NNE
Cosmos 1656 4.0 19:51:50 10° NNW 19:57:27 65° WSW 20:02:56 10° SSE
Cosmos 2154 Rocket 4.1 19:51:50 10° N 19:58:03 83° W 20:04:16 10° S
Cosmos 2184 Rocket 4.4 19:54:49 10° NNW 20:01:03 70° W 20:07:18 10° S
SeaSat 1 3.8 19:57:55 10° ESE 20:02:06 29° NE 20:06:17 10° NNW
Cosmos 2082 Rocket 4.0 20:01:11 10° ESE 20:02:52 11° E 20:04:33 10° ENE
Cosmos 1933 3.2 19:59:30 10° S 20:03:21 79° E 20:07:13 10° NNE
Okean O Rocket 2.1 19:59:10 10° S 20:03:29 61° WSW 20:07:48 10° NNW
Cosmos 2221 4.4 20:01:25 10° ESE 20:03:37 14° E 20:05:50 10° NE
Iridium 4 Rocket 3.6 20:00:36 10° N 20:05:41 88° W 20:11:12 10° S
SPOT 3 Rocket 4.0 20:03:02 10° SE 20:07:57 47° ENE 20:12:52 10° N
Okean-O 2.8 20:04:36 10° S 20:08:59 73° WSW 20:13:23 10° NNW
ERS-1 Rocket 3.2 20:06:02 10° S 20:11:02 73° WSW 20:16:05 10° NNW
Cosmos 1743 2.9 20:14:07 10° NNW 20:17:30 60° W 20:20:52 10° S
ISS -3.6 20:16:31 10° WNW 20:19:53 77° N 20:23:15 10° E
Lacrosse 4 Rocket 4.2 20:18:47 10° W 20:21:57 22° NW 20:25:10 10° NNE
Cosmos 2084 Rocket 4.3 20:18:20 10° S 20:21:59 28° ESE 20:25:38 10° ENE
BREEZE-M R/B 4.4 19:59:01 10° W 20:22:15 84° S 20:27:05 10° E
Spot 2 Rocket 3.5 20:17:47 10° SSE 20:22:49 89° ENE 20:27:53 10° NNW
ARIANE 6 FM1 Upper Stage 2.5 20:19:48 10° SW 20:23:48 77° SE 20:27:52 10° NE
NOSS 3-1 (C) 3.3 20:19:25 10° S 20:23:53 43° ESE 20:29:13 10° NE
IKONOS-2 4.4 20:23:10 10° NNE 20:27:17 72° ESE 20:31:24 10° S
Cosmos 1833 Rocket 2.7 20:24:30 10° SSW 20:30:06 69° ESE 20:35:44 10° NNE
Cosmos 1356 Rocket 3.9 20:28:39 14° SSE 20:31:51 39° E 20:35:43 10° NNE
Cosmos 1733 2.5 20:30:44 10° N 20:33:50 89° ENE 20:36:07 17° S
SL-24 R/B 4.5 20:30:53 14° SSE 20:34:30 85° ENE 20:38:41 10° NNW
Cosmos 158 Rocket 4.1 20:33:41 10° SSW 20:39:00 85° WNW 20:44:24 10° NNE
USA 245 4.0 20:35:19 12° S 20:39:12 68° WSW 20:44:22 10° NNW
Cosmos 2218 Rocket 4.1 20:34:24 10° N 20:40:48 68° ENE 20:46:01 15° SSE
Cosmos 2058 Rocket 3.9 20:39:39 10° SSW 20:44:01 52° WNW 20:48:23 10° N
Helios 1A 4.4 20:43:49 10° N 20:47:34 37° WNW 20:51:17 10° SW
Cosmos 1805 4.1 20:45:59 10° N 20:49:05 30° ENE 20:50:42 20° ESE
SWARM A 4.4 20:48:26 22° SSE 20:50:25 56° E 20:53:44 10° N
PSLV R/B 3.5 20:49:41 19° S 20:51:50 67° WSW 20:55:05 10° NNW
Cosmos 1812 Rocket 3.6 20:48:57 17° S 20:52:06 57° E 20:56:21 10° NNE
Cosmos 1980 Rocket 2.3 20:47:49 10° NNW 20:53:25 69° ENE 20:57:27 19° SE
NOSS 3-1 (A) 3.7 20:50:27 16° S 20:53:37 32° ESE 20:58:32 10° NE
Terra 3.2 20:51:02 10° SSW 20:55:15 33° W 20:59:32 10° NNW
ATLAS CENTAUR R/B 1.8 20:52:03 10° SW 20:55:42 57° NW 20:59:30 10° NE
USA 234 3.2 20:49:58 10° ENE 20:56:33 81° SE 21:03:06 10° SW
Cosmos 1315 Rocket 3.0 20:55:12 21° SSE 20:57:33 50° E 21:01:19 10° NNE
Cosmos 1959 Rocket 4.5 20:52:34 10° N 20:58:47 85° ENE 21:03:44 17° S
BREEZE-M DEB (TANK) 4.4 20:38:35 10° W 20:59:41 88° S 21:04:46 10° E
Meteor 1-26 Rocket 4.4 20:54:47 10° SSW 21:00:39 83° WNW 21:06:43 10° N
Cosmos 2208 Rocket 4.0 20:55:23 10° S 21:00:43 66° ESE 21:06:01 10° NNE
Cosmos 2181 Rocket 4.1 20:58:42 15° S 21:04:02 68° E 21:10:22 10° NNE
SL-16 R/B 3.7 20:59:26 10° NNW 21:04:17 28° NE 21:09:04 10° ESE
DELTA 2 DEB (DPAF) 4.3 21:03:34 10° NNE 21:07:20 41° E 21:09:02 26° SSE
Meteor 1-11 Rocket 4.3 21:02:17 10° N 21:07:33 43° ENE 21:10:57 20° SE
BlueWalker 3 2.4 21:05:23 10° WNW 21:08:51 42° SW 21:10:12 28° SSE
SL-24 R/B 4.1 21:05:25 10° NNE 21:09:44 68° ESE 21:12:50 19° S
Cosmos 1125 Rocket 4.5 21:04:58 10° NW 21:09:56 41° WSW 21:14:02 14° S
Meteor 2-10 4.2 21:04:15 10° NNW 21:09:58 83° W 21:13:58 20° S
Cosmos 2322 Rocket 4.1 21:08:38 10° NNW 21:13:02 22° NE 21:17:23 10° E
Cosmos 2366 rocket 4.3 21:09:40 10° NNW 21:16:00 68° W 21:21:08 16° S
SL-24 DEB 4.3 21:14:17 19° S 21:17:26 72° W 21:22:00 10° N
CZ-4C R/B 4.1 21:15:49 10° NE 21:19:02 29° E 21:19:42 27° ESE
Meteor 1-14 Rocket 4.2 21:14:29 10° NNW 21:20:07 88° ENE 21:23:50 23° SSE
Ariane Rocket 3.7 21:16:59 16° S 21:20:52 48° W 21:25:48 10° NNW
Cosmos 44 4.3 21:18:34 10° NW 21:22:40 33° WSW 21:25:13 20° S
Cosmos 1238 Rocket 2.5 21:22:13 24° SSW 21:24:19 80° W 21:27:37 10° N
Cosmos 2298 Rocket 4.2 21:19:27 10° NNW 21:24:46 70° WSW 21:27:57 24° S
Cosmos 1697 Rocket 3.7 21:20:14 10° NW 21:25:23 37° WSW 21:29:17 16° SSW
Nadezhda 3 Rocket 4.3 21:21:58 23° SSE 21:25:40 52° E 21:31:42 10° NNE
Lacrosse 5 rocket 2.6 21:23:15 10° W 21:25:51 20° SW 21:26:35 18° SSW
ARIANE 5 R/B 3.7 21:23:51 20° ESE 21:26:00 32° ENE 21:29:54 10° N
Cosmos 1766 4.5 21:27:47 10° NNE 21:30:39 24° ENE 21:31:35 21° E
CENTAUR R/B 4.2 21:24:56 10° NW 21:32:12 43° NNE 21:40:41 10° E
Cosmos 2360 Rocket 4.0 21:28:16 10° NNW 21:32:51 25° NE 21:37:24 10° E
ATLAS 3B R/B 3.8 21:30:07 23° SSE 21:33:08 30° ESE 21:39:37 10° NE
Meteor 2-6 Rocket 4.3 21:30:19 15° SSW 21:35:15 80° WNW 21:41:00 10° N
Cosmos 1536 2.7 21:32:10 10° NNW 21:35:58 75° W 21:37:32 34° S
Cosmos 2369 3.7 21:32:39 10° NNW 21:38:22 88° WSW 21:41:29 28° SSE
SeaSat 1 2.7 21:36:40 27° S 21:39:14 60° WSW 21:44:06 10° NW
Cosmos 2221 2.7 21:37:30 21° SSW 21:40:12 64° WNW 21:44:22 10° N
Cosmos 405 Rocket 3.0 21:37:31 10° N 21:40:51 45° ENE 21:41:40 37° ESE
CZ-2C R/B 4.4 21:38:27 10° NNE 21:42:31 35° E 21:43:42 30° SE
Okean 1 3.7 21:42:37 22° SW 21:44:46 52° WNW 21:48:22 10° N
Cosmos 2082 Rocket 2.1 21:42:04 21° SSW 21:45:50 68° ESE 21:51:26 10° NNE
Cosmos 1674 2.2 21:48:35 48° NNW 21:48:35 48° NNW 21:50:19 10° N
Timation 1 Rocket 4.4 21:47:15 25° S 21:50:40 57° ESE 21:56:32 10° NE
ISS -2.8 21:53:25 10° W 21:56:12 34° SW 21:56:12 34° SW
Cosmos 773 Rocket 4.4 21:51:31 10° SW 21:56:34 60° WNW 22:01:39 10° NNE
Okean 3 Rocket 3.8 21:53:11 10° N 21:57:33 59° ENE 21:59:09 36° SE
Meteor 1-10 Rocket 4.3 21:54:20 25° S 21:57:58 86° ESE 22:03:51 10° NNE
COBE Rocket 4.0 21:52:54 10° NNE 21:58:02 89° WNW 22:00:56 27° SSW
Landsat 5 4.2 21:55:23 10° NNE 21:59:18 37° E 22:00:10 33° SE
Cosmos 220 Rocket 4.4 21:57:20 18° SW 22:00:13 57° WNW 22:04:15 10° NNE
Cosmos 1766 Rocket 3.8 21:56:03 10° NNW 22:00:25 63° W 22:02:12 33° SSW
Cosmos 2084 Rocket 4.3 21:56:29 10° WSW 22:00:39 51° NW 22:04:48 10° NE
COSMOS 2406 3.3 21:59:10 29° S 22:01:57 58° ESE 22:07:33 10° NE
Cosmos 1842 4.5 22:02:54 23° E 22:02:59 23° E 22:05:45 10° NE
USA 59 Rocket -0.4 22:10:23 46° E 22:10:23 46° E 22:12:48 10° NE
Cosmos 2333 Rocket 3.0 22:06:40 10° NNW 22:12:12 46° NE 22:15:54 20° ESE
MetOp-A 4.0 22:10:43 35° SSE 22:12:57 85° WSW 22:18:10 10° NNW
NOSS 3-1 (C) 4.3 22:09:45 10° WSW 22:14:34 44° NNW 22:20:31 10° NE
Cosmos 1151 Rocket 4.0 22:19:28 28° ESE 22:20:15 30° E 22:23:57 10° NNE
NOSS 2-1 (E) 3.0 22:21:20 54° E 22:21:20 54° E 22:23:59 10° NE
ALOS 2 2.9 22:19:44 37° SE 22:21:15 58° ENE 22:25:34 10° N
Meteor 2-13 Rocket 4.4 22:19:05 30° S 22:22:19 85° E 22:28:29 10° NNE
PKM 4.3 22:19:51 10° W 22:22:39 57° NNW 22:27:28 10° ENE
Cosmos 2219 Rocket 3.6 22:22:54 10° NNW 22:27:57 33° NE 22:32:39 11° ESE
ATLAS CENTAUR R/B 4.3 22:30:18 10° WNW 22:32:38 15° NNW 22:34:59 10° NNE
Meteor 2-4 Rocket 3.8 22:30:52 35° SSE 22:33:12 66° E 22:38:59 10° NNE
Meteor 1-27 Rocket 3.7 22:30:54 30° SSW 22:33:47 77° WNW 22:39:21 10° N
NOSS 2-1 (D) 2.7 22:36:14 71° WSW 22:36:31 82° NW 22:39:30 10° NE
Cosmos 1980 Rocket 3.8 22:32:39 10° NW 22:36:52 22° WSW 22:39:12 17° SW
Sich 1 2.9 22:33:05 10° N 22:37:21 89° ENE 22:38:23 51° S
USA 234 4.0 22:33:04 10° ENE 22:39:25 56° NNW 22:45:46 10° W
Genesis I 3.4 22:38:28 10° NW 22:40:24 39° WNW 22:40:24 39° WNW
NOSS 3-1 (A) 3.8 22:39:08 10° WSW 22:44:01 54° NW 22:50:03 10° NE
PSLV R/B 3.8 22:42:06 10° NNE 22:46:10 48° E 22:46:52 43° SE
Cosmos 2056 Rocket 4.5 22:42:42 10° NNW 22:47:47 42° ENE 22:50:55 21° ESE
SL-16 R/B 2.2 22:43:14 10° NNW 22:48:53 70° WSW 22:51:05 38° S
Cosmos 1975 3.4 22:46:13 10° NNW 22:49:40 38° W 22:50:13 35° WSW
Cosmos 1707 2.1 22:51:13 83° SSW 22:51:20 88° W 22:54:43 10° N
Cosmos 1500 Rocket 3.5 22:48:05 10° NNW 22:52:27 78° W 22:53:33 50° S
Cosmos 1538 Rocket 3.9 22:50:41 37° SSW 22:52:48 89° ESE 22:57:59 10° NNE
NOSS 2-1 (C) 3.3 22:55:39 40° W 22:56:26 53° NW 22:59:23 10° NE
Cosmos 2322 Rocket 2.1 22:52:11 10° NNW 22:57:54 87° ENE 23:00:25 35° SSE
Spot 4 4.2 22:56:44 38° SSW 22:58:09 52° W 23:02:50 10° NNW
Cosmos 1633 Rocket 4.3 22:55:12 10° N 22:59:10 33° ENE 23:00:47 25° ESE
Cosmos 1408 Rocket 3.9 22:57:04 10° NNW 23:01:19 52° W 23:02:20 42° SW
ARIANE 5 R/B 3.7 23:01:14 28° SW 23:02:19 31° W 23:06:15 10° NNW
Cosmos 1766 4.5 23:02:08 10° NW 23:05:00 25° W 23:05:17 24° W
Cosmos 1908 3.8 23:03:28 10° NNW 23:06:26 34° W 23:06:26 34° W
Cosmos 1470 2.8 23:03:36 10° NNW 23:07:05 52° W 23:07:19 51° WSW
Cosmos 1066 Rocket 4.2 23:04:56 38° S 23:07:08 78° E 23:12:55 10° NNE
Meteor 2-10 Rocket 4.3 23:02:31 10° N 23:08:07 51° ENE 23:11:09 26° SE
Cosmos 1805 Rocket 3.8 23:04:10 10° NNW 23:08:31 57° W 23:09:35 44° SW
Cosmos 2278 4.2 23:09:34 10° NW 23:14:56 45° WSW 23:16:39 35° SSW
GP-B 3.0 23:11:01 10° N 23:15:26 82° E 23:16:31 51° S
Exosat Rocket 3.7 23:11:59 10° NW 23:16:55 55° WSW 23:18:24 40° SSW
Meteor 1-18 Rocket 4.3 23:14:33 36° SSW 23:17:03 86° W 23:22:59 10° NNE
Cosmos 2360 Rocket 2.1 23:11:50 10° NNW 23:17:29 81° WSW 23:19:46 37° SSE
Cosmos 2173 Rocket 4.3 23:12:08 10° N 23:18:27 61° ENE 23:21:47 28° SSE
ATLAS 3B R/B 3.0 23:17:16 18° SW 23:23:13 82° NW 23:31:09 10° NE
CENTAUR R/B 3.2 23:15:35 10° NW 23:23:46 86° SW 23:31:24 17° SE
USA 229 DEB 3.4 23:20:46 31° SSW 23:23:58 80° SE 23:30:47 10° NE
USA 229 3.4 23:20:54 31° SSW 23:24:04 80° SE 23:30:52 10° NE
Spot 1 4.4 23:19:51 10° N 23:24:05 60° WNW 23:25:34 38° SW
Cosmos 1328 Rocket 4.1 23:23:10 39° SE 23:24:08 47° E 23:28:17 10° NNE
ASTEX 1 3.3 23:19:28 10° N 23:24:27 84° E 23:26:06 43° S
Cosmos 1743 Rocket 4.0 23:22:27 10° NNW 23:26:46 50° W 23:27:46 41° SW
GEOS 3 Rocket 4.3 23:22:03 10° ESE 23:27:00 53° NE 23:32:01 10° NW
Cosmos 2082 Rocket 4.0 23:25:36 10° WSW 23:30:23 28° NW 23:35:13 10° NNE
In-Cosmos 22 4.5 23:31:00 35° SSE 23:33:18 60° E 23:38:59 10° NNE
Cosmos 1842 4.5 23:36:29 24° W 23:37:10 26° WNW 23:40:09 10° NNW
Cosmos 1420 Rocket 4.2 23:36:38 10° NNW 23:41:49 56° WSW 23:43:26 39° SSW
Cosmos 2112 Rocket 4.0 23:41:11 40° S 23:43:00 69° ESE 23:48:12 10° NNE
Cosmos 1455 1.9 23:44:32 10° N 23:47:02 57° NE 23:47:02 57° NE
Cosmos 2237 Rocket 4.2 23:43:33 10° NNW 23:48:16 26° NE 23:52:59 10° E
Cosmos 1300 3.3 23:47:49 10° NNW 23:50:26 33° W 23:50:26 33° W
SL-14 R/B 3.4 23:53:45 50° SE 23:54:27 62° E 23:58:18 10° NNE
